Location: *
(45.5667°S, 177.5167°W)
Time: 05:07:23
(UTC+00:00)

USA 307 - Pass Details

Date: 29 May 2022
Orbit: 552 x 554 km, 54.0° (Epoch: 17 June)

Event Time Altitude Azimuth Distance (km) Brightness Sun altitude
Rises 05:43:36 0° 237° (WSW) 2,763 7.0 -14.6°
Reaches altitude 10° 05:45:52 10° 238° (WSW) 1,863 6.1 -15.0°
Maximum altitude 05:50:06 76° 323° (NW) 584 3.0 -15.7°
Enters shadow 05:53:44 13° 48° (NE) 1,631 4.9 -16.3°
